QPF
0.03 0.03 0.02 0.01 0.00 0.01 0.01 0.01 0.02 0.01 0.01 0.02 0.02 0.05 0.09 0.13 0.15 0.11 0.06 0.05 0.05 0.05 0.05 0.04 0.02 0.03 0.03 0.03 0.04 0.05 0.05 0.05 0.05 0.06 0.05 0.03 0.02 0.02 0.02 0.03 0.03 0.03 0.03
0.03 0.03 0.02 0.01 0.01 0.00 0.01 0.01 0.02 0.01 0.01 0.02 0.03 0.04 0.07 0.09 0.12 0.12 0.09 0.06 0.06 0.07 0.06 0.06 0.05 0.05 0.05 0.05 0.06 0.07 0.07 0.07 0.08 0.08 0.08 0.06 0.04 0.03 0.04 0.03 0.02 0.02 0.02
0.02 0.04 0.03 0.02 0.01 0.01 0.01 0.02 0.02 0.01 0.02 0.03 0.05 0.06 0.07 0.06 0.06 0.06 0.06 0.05 0.05 0.06 0.07 0.06 0.04 0.05 0.06 0.07 0.08 0.09 0.11 0.12 0.11 0.09 0.08 0.06 0.03 0.03 0.04 0.02 0.01 0.01 0.01
0.03 0.04 0.04 0.02 0.02 0.02 0.02 0.02 0.02 0.02 0.03 0.03 0.03 0.05 0.05 0.03 0.02 0.02 0.02 0.03 0.03 0.04 0.06 0.09 0.08 0.07 0.07 0.07 0.07 0.08 0.08 0.08 0.08 0.09 0.08 0.06 0.04 0.04 0.03 0.02 0.01 0.02 0.02
0.03 0.03 0.05 0.05 0.03 0.03 0.03 0.03 0.03 0.03 0.03 0.04 0.05 0.03 0.02 0.02 0.02 0.02 0.02 0.02 0.02 0.03 0.06 0.09 0.08 0.07 0.06 0.06 0.07 0.09 0.08 0.08 0.08 0.08 0.09 0.09 0.07 0.05 0.04 0.02 0.02 0.02 0.03
0.04 0.05 0.06 0.05 0.04 0.05 0.05 0.04 0.04 0.05 0.05 0.06 0.06 0.05 0.05 0.05 0.04 0.02 0.02 0.01 0.01 0.03 0.05 0.07 0.07 0.06 0.05 0.04 0.04 0.05 0.05 0.05 0.05 0.05 0.05 0.06 0.06 0.05 0.04 0.03 0.02 0.02 0.02
0.05 0.05 0.05 0.04 0.04 0.05 0.06 0.06 0.06 0.06 0.07 0.09 0.09 0.10 0.10 0.10 0.10 0.07 0.06 0.04 0.04 0.03 0.02 0.03 0.03 0.03 0.03 0.03 0.03 0.04 0.04 0.04 0.04 0.04 0.04 0.05 0.05 0.05 0.05 0.05 0.03 0.02 0.01
0.04 0.04 0.03 0.03 0.04 0.06 0.08 0.05 0.03 0.05 0.06 0.09 0.08 0.10 0.12 0.12 0.10 0.09 0.07 0.06 0.06 0.05 0.04 0.04 0.05 0.05 0.05 0.04 0.04 0.04 0.03 0.04 0.05 0.05 0.06 0.07 0.07 0.07 0.06 0.05 0.04 0.03 0.02
0.03 0.03 0.04 0.04 0.05 0.06 0.10 0.05 0.03 0.03 0.03 0.05 0.07 0.11 0.10 0.09 0.07 0.06 0.06 0.06 0.08 0.07 0.06 0.05 0.05 0.06 0.07 0.06 0.05 0.04 0.03 0.04 0.05 0.05 0.06 0.06 0.05 0.06 0.05 0.04 0.04 0.04 0.02
0.02 0.03 0.04 0.05 0.04 0.05 0.06 0.03 0.02 0.02 0.02 0.03 0.04 0.06 0.08 0.08 0.07 0.06 0.07 0.07 0.07 0.07 0.07 0.08 0.07 0.06 0.06 0.05 0.04 0.04 0.05 0.05 0.06 0.05 0.05 0.04 0.03 0.03 0.04 0.04 0.03 0.03 0.03
0.02 0.03 0.03 0.03 0.04 0.03 0.03 0.03 0.02 0.02 0.03 0.04 0.06 0.04 0.05 0.07 0.09 0.09 0.09 0.08 0.09 0.11 0.10 0.08 0.08 0.07 0.07 0.06 0.04 0.04 0.05 0.05 0.05 0.05 0.05 0.05 0.05 0.05 0.05 0.06 0.06 0.04 0.05
0.03 0.02 0.01 0.02 0.02 0.02 0.03 0.03 0.02 0.02 0.03 0.04 0.07 0.08 0.08 0.08 0.09 0.09 0.09 0.09 0.09 0.10 0.13 0.13 0.09 0.07 0.08 0.09 0.08 0.07 0.08 0.08 0.06 0.06 0.05 0.05 0.06 0.07 0.06 0.06 0.06 0.06 0.06
0.02 0.01 0.01 0.01 0.03 0.03 0.03 0.03 0.02 0.02 0.03 0.03 0.05 0.04 0.04 0.03 0.04 0.07 0.08 0.09 0.10 0.09 0.08 0.10 0.10 0.08 0.12 0.16 0.16 0.16 0.13 0.10 0.07 0.05 0.05 0.04 0.05 0.05 0.05 0.05 0.04 0.04 0.04
0.01 0.01 0.01 0.02 0.03 0.03 0.03 0.03 0.02 0.02 0.02 0.03 0.04 0.04 0.03 0.03 0.03 0.04 0.04 0.04 0.05 0.06 0.05 0.05 0.06 0.08 0.09 0.08 0.09 0.07 0.06 0.05 0.05 0.05 0.04 0.04 0.03 0.03 0.03 0.02 0.02 0.02 0.02
0.01 0.01 0.01 0.02 0.02 0.02 0.02 0.02 0.02 0.02 0.02 0.02 0.02 0.03 0.04 0.05 0.05 0.04 0.04 0.04 0.03 0.02 0.03 0.04 0.04 0.05 0.06 0.05 0.06 0.05 0.03 0.03 0.03 0.04 0.03 0.03 0.02 0.02 0.01 0.01 0.01 0.01 0.02
0.01 0.01 0.02 0.03 0.03 0.02 0.02 0.01 0.02 0.03 0.05 0.04 0.03 0.04 0.05 0.08 0.09 0.06 0.03 0.02 0.02 0.02 0.02 0.02 0.03 0.03 0.05 0.06 0.07 0.06 0.04 0.02 0.02 0.02 0.02 0.02 0.02 0.02 0.02 0.01 0.01 0.01 0.01
0.01 0.02 0.02 0.02 0.03 0.03 0.03 0.03 0.03 0.04 0.05 0.05 0.04 0.05 0.07 0.07 0.06 0.04 0.02 0.01 0.01 0.01 0.01 0.01 0.01 0.01 0.03 0.04 0.05 0.07 0.06 0.03 0.02 0.02 0.02 0.02 0.02 0.02 0.02 0.02 0.01 0.01 0.01
0.02 0.02 0.02 0.03 0.03 0.04 0.05 0.05 0.05 0.05 0.05 0.04 0.04 0.04 0.05 0.05 0.03 0.02 0.01 0.01 0.00 0.00 0.00 0.00 0.01 0.01 0.01 0.02 0.03 0.04 0.06 0.05 0.03 0.02 0.03 0.04 0.04 0.04 0.03 0.03 0.02 0.02 0.01
0.02 0.02 0.02 0.02 0.02 0.02 0.02 0.03 0.02 0.04 0.06 0.04 0.03 0.04 0.03 0.03 0.01 0.01 0.01 0.01 0.01 0.01 0.00 0.00 0.00 0.01 0.01 0.01 0.02 0.04 0.03 0.04 0.05 0.04 0.05 0.06 0.05 0.05 0.05 0.04 0.04 0.04 0.03
0.01 0.01 0.01 0.02 0.02 0.02 0.02 0.02 0.03 0.04 0.04 0.03 0.03 0.03 0.02 0.02 0.02 0.01 0.01 0.01 0.01 0.01 0.01 0.00 0.00 0.01 0.01 0.02 0.02 0.04 0.04 0.03 0.04 0.04 0.04 0.04 0.05 0.06 0.08 0.07 0.06 0.05 0.04
0.01 0.01 0.02 0.02 0.03 0.03 0.03 0.03 0.03 0.04 0.04 0.04 0.04 0.04 0.04 0.04 0.04 0.04 0.03 0.02 0.01 0.01 0.01 0.00 0.00 0.00 0.01 0.01 0.01 0.02 0.02 0.02 0.01 0.02 0.02 0.02 0.02 0.02 0.04 0.05 0.05 0.06 0.05
0.01 0.01 0.01 0.01 0.02 0.02 0.02 0.03 0.03 0.04 0.05 0.05 0.05 0.05 0.05 0.05 0.05 0.04 0.04 0.04 0.03 0.02 0.01 0.01 0.01 0.01 0.01 0.01 0.02 0.02 0.01 0.01 0.01 0.01 0.01 0.02 0.02 0.02 0.03 0.05 0.06 0.05 0.05
0.02 0.02 0.02 0.02 0.02 0.02 0.03 0.04 0.05 0.06 0.08 0.07 0.06 0.06 0.06 0.06 0.05 0.06 0.04 0.04 0.06 0.05 0.03 0.02 0.01 0.01 0.01 0.01 0.02 0.03 0.02 0.02 0.01 0.01 0.01 0.02 0.02 0.02 0.02 0.03 0.04 0.05 0.06
0.05 0.05 0.05 0.05 0.04 0.05 0.07 0.07 0.07 0.08 0.09 0.10 0.10 0.09 0.08 0.08 0.07 0.07 0.07 0.05 0.05 0.05 0.04 0.03 0.02 0.02 0.01 0.01 0.01 0.01 0.02 0.02 0.02 0.02 0.02 0.03 0.03 0.02 0.02 0.02 0.02 0.03 0.04
0.04 0.04 0.06 0.06 0.06 0.06 0.08 0.09 0.09 0.09 0.08 0.09 0.11 0.11 0.10 0.09 0.09 0.08 0.09 0.09 0.08 0.05 0.05 0.03 0.02 0.02 0.01 0.01 0.01 0.01 0.02 0.02 0.02 0.02 0.02 0.02 0.02 0.02 0.03 0.02 0.01 0.02 0.02
0.04 0.03 0.03 0.04 0.04 0.04 0.04 0.07 0.08 0.08 0.08 0.07 0.06 0.08 0.08 0.06 0.05 0.06 0.06 0.05 0.05 0.04 0.03 0.02 0.01 0.01 0.01 0.01 0.01 0.01 0.02 0.02 0.03 0.03 0.02 0.02 0.02 0.03 0.02 0.02 0.02 0.01 0.02
MSLP
1009.41 1009.85 1010.31 1010.76 1011.19 1011.59 1011.98 1012.37 1012.78 1013.21 1013.66 1014.10 1014.52 1014.89 1015.19 1015.42 1015.59 1015.72 1015.81 1015.91 1016.02 1016.16 1016.34 1016.54 1016.77 1017.00 1017.22 1017.42 1017.58 1017.70 1017.77 1017.78 1017.74 1017.65 1017.49 1017.28 1017.03 1016.74 1016.46 1016.17 1015.91 1015.70 1015.53
1008.83 1009.30 1009.80 1010.28 1010.74 1011.16 1011.57 1011.97 1012.41 1012.87 1013.36 1013.86 1014.34 1014.76 1015.11 1015.36 1015.54 1015.65 1015.73 1015.82 1015.92 1016.07 1016.27 1016.51 1016.78 1017.05 1017.30 1017.52 1017.70 1017.82 1017.89 1017.91 1017.89 1017.82 1017.70 1017.54 1017.33 1017.08 1016.80 1016.51 1016.22 1015.94 1015.68
1008.12 1008.63 1009.19 1009.73 1010.23 1010.69 1011.12 1011.56 1012.02 1012.52 1013.06 1013.60 1014.13 1014.59 1014.97 1015.26 1015.45 1015.57 1015.65 1015.73 1015.85 1016.03 1016.26 1016.53 1016.84 1017.13 1017.40 1017.62 1017.79 1017.91 1017.97 1017.99 1017.99 1017.96 1017.89 1017.79 1017.65 1017.45 1017.21 1016.92 1016.61 1016.28 1015.95
1007.37 1007.92 1008.53 1009.13 1009.68 1010.19 1010.66 1011.13 1011.63 1012.16 1012.73 1013.32 1013.88 1014.39 1014.80 1015.11 1015.32 1015.46 1015.57 1015.68 1015.83 1016.03 1016.30 1016.61 1016.93 1017.25 1017.52 1017.72 1017.87 1017.96 1018.00 1018.03 1018.03 1018.03 1018.03 1017.99 1017.92 1017.80 1017.60 1017.34 1017.02 1016.64 1016.25
1006.66 1007.23 1007.88 1008.53 1009.14 1009.68 1010.20 1010.70 1011.23 1011.79 1012.39 1013.01 1013.60 1014.14 1014.58 1014.92 1015.16 1015.34 1015.47 1015.63 1015.82 1016.07 1016.38 1016.72 1017.07 1017.38 1017.64 1017.83 1017.93 1017.99 1018.00 1018.01 1018.02 1018.05 1018.09 1018.12 1018.12 1018.07 1017.92 1017.69 1017.37 1016.98 1016.53
1006.06 1006.64 1007.30 1007.97 1008.60 1009.17 1009.71 1010.24 1010.79 1011.39 1012.01 1012.66 1013.28 1013.84 1014.32 1014.69 1014.97 1015.18 1015.37 1015.57 1015.82 1016.11 1016.46 1016.84 1017.20 1017.52 1017.76 1017.91 1017.98 1017.99 1017.97 1017.96 1017.97 1018.01 1018.09 1018.17 1018.23 1018.22 1018.13 1017.93 1017.63 1017.22 1016.75
1005.62 1006.16 1006.79 1007.45 1008.07 1008.64 1009.19 1009.73 1010.30 1010.91 1011.57 1012.23 1012.89 1013.48 1014.00 1014.41 1014.74 1015.00 1015.24 1015.49 1015.79 1016.14 1016.52 1016.92 1017.30 1017.61 1017.84 1017.97 1018.01 1017.98 1017.93 1017.89 1017.89 1017.93 1018.03 1018.14 1018.23 1018.27 1018.22 1018.05 1017.76 1017.36 1016.88
1005.32 1005.79 1006.35 1006.94 1007.52 1008.06 1008.58 1009.12 1009.70 1010.34 1011.02 1011.73 1012.42 1013.07 1013.62 1014.09 1014.47 1014.78 1015.08 1015.38 1015.72 1016.11 1016.53 1016.95 1017.34 1017.66 1017.88 1017.98 1018.00 1017.95 1017.88 1017.81 1017.80 1017.84 1017.93 1018.05 1018.16 1018.22 1018.19 1018.05 1017.78 1017.40 1016.93
1005.12 1005.48 1005.94 1006.42 1006.91 1007.39 1007.87 1008.39 1008.98 1009.65 1010.37 1011.13 1011.88 1012.58 1013.20 1013.73 1014.16 1014.53 1014.88 1015.23 1015.61 1016.03 1016.47 1016.91 1017.31 1017.63 1017.84 1017.95 1017.96 1017.90 1017.82 1017.74 1017.72 1017.75 1017.83 1017.94 1018.05 1018.11 1018.09 1017.96 1017.71 1017.35 1016.91
1004.96 1005.19 1005.51 1005.85 1006.22 1006.60 1007.03 1007.53 1008.13 1008.83 1009.61 1010.44 1011.26 1012.04 1012.74 1013.34 1013.84 1014.27 1014.66 1015.05 1015.46 1015.90 1016.35 1016.80 1017.21 1017.53 1017.76 1017.87 1017.89 1017.84 1017.76 1017.69 1017.66 1017.67 1017.74 1017.84 1017.92 1017.97 1017.95 1017.82 1017.59 1017.26 1016.86
1004.78 1004.87 1005.03 1005.22 1005.44 1005.72 1006.08 1006.56 1007.17 1007.91 1008.76 1009.67 1010.59 1011.47 1012.25 1012.93 1013.51 1014.00 1014.44 1014.86 1015.29 1015.74 1016.21 1016.66 1017.07 1017.40 1017.64 1017.77 1017.81 1017.78 1017.72 1017.66 1017.62 1017.63 1017.68 1017.75 1017.80 1017.83 1017.78 1017.66 1017.44 1017.15 1016.78
1004.57 1004.51 1004.50 1004.53 1004.61 1004.78 1005.08 1005.53 1006.16 1006.95 1007.87 1008.88 1009.90 1010.87 1011.76 1012.53 1013.18 1013.74 1014.23 1014.69 1015.15 1015.60 1016.07 1016.52 1016.93 1017.27 1017.52 1017.67 1017.74 1017.74 1017.70 1017.66 1017.62 1017.62 1017.65 1017.68 1017.71 1017.70 1017.64 1017.50 1017.29 1017.02 1016.70
1004.33 1004.14 1003.97 1003.84 1003.79 1003.85 1004.08 1004.51 1005.15 1005.99 1006.99 1008.08 1009.20 1010.28 1011.26 1012.12 1012.86 1013.49 1014.04 1014.54 1015.03 1015.50 1015.97 1016.42 1016.83 1017.18 1017.44 1017.61 1017.70 1017.73 1017.71 1017.68 1017.66 1017.64 1017.65 1017.65 1017.64 1017.59 1017.50 1017.35 1017.14 1016.89 1016.61
1004.11 1003.79 1003.48 1003.21 1003.03 1003.00 1003.17 1003.58 1004.23 1005.11 1006.16 1007.33 1008.52 1009.68 1010.76 1011.72 1012.54 1013.25 1013.86 1014.42 1014.95 1015.45 1015.94 1016.40 1016.81 1017.16 1017.43 1017.61 1017.72 1017.77 1017.77 1017.74 1017.72 1017.69 1017.67 1017.64 1017.59 1017.51 1017.39 1017.22 1017.01 1016.77 1016.52
1003.92 1003.50 1003.07 1002.69 1002.41 1002.30 1002.42 1002.80 1003.45 1004.34 1005.42 1006.63 1007.88 1009.10 1010.25 1011.28 1012.19 1012.98 1013.68 1014.31 1014.89 1015.44 1015.96 1016.44 1016.87 1017.22 1017.50 1017.69 1017.80 1017.85 1017.86 1017.84 1017.81 1017.77 1017.73 1017.67 1017.59 1017.47 1017.32 1017.12 1016.90 1016.66 1016.42
1003.78 1003.28 1002.78 1002.31 1001.96 1001.79 1001.86 1002.21 1002.84 1003.72 1004.79 1006.00 1007.27 1008.53 1009.72 1010.81 1011.79 1012.67 1013.46 1014.17 1014.84 1015.45 1016.02 1016.54 1016.99 1017.35 1017.64 1017.83 1017.95 1017.99 1018.00 1017.98 1017.94 1017.89 1017.83 1017.74 1017.64 1017.49 1017.31 1017.09 1016.86 1016.61 1016.37
1003.68 1003.14 1002.58 1002.07 1001.67 1001.47 1001.51 1001.82 1002.41 1003.25 1004.29 1005.47 1006.71 1007.96 1009.17 1010.31 1011.36 1012.32 1013.20 1014.01 1014.76 1015.46 1016.09 1016.66 1017.14 1017.53 1017.82 1018.01 1018.12 1018.17 1018.18 1018.15 1018.10 1018.05 1017.98 1017.89 1017.76 1017.60 1017.40 1017.17 1016.91 1016.65 1016.39
1003.57 1003.01 1002.44 1001.93 1001.53 1001.32 1001.34 1001.61 1002.16 1002.94 1003.91 1005.03 1006.22 1007.44 1008.65 1009.80 1010.90 1011.93 1012.90 1013.80 1014.66 1015.44 1016.15 1016.78 1017.30 1017.71 1018.01 1018.22 1018.33 1018.38 1018.39 1018.36 1018.32 1018.27 1018.21 1018.12 1018.00 1017.84 1017.63 1017.39 1017.11 1016.82 1016.53
1003.37 1002.84 1002.31 1001.83 1001.47 1001.28 1001.30 1001.55 1002.05 1002.77 1003.67 1004.71 1005.83 1007.00 1008.18 1009.34 1010.47 1011.55 1012.60 1013.60 1014.54 1015.41 1016.20 1016.88 1017.44 1017.89 1018.21 1018.42 1018.55 1018.61 1018.62 1018.61 1018.60 1018.57 1018.53 1018.46 1018.36 1018.21 1018.01 1017.77 1017.48 1017.17 1016.84
1003.03 1002.57 1002.11 1001.72 1001.43 1001.29 1001.34 1001.59 1002.07 1002.73 1003.56 1004.52 1005.57 1006.68 1007.83 1008.98 1010.13 1011.27 1012.38 1013.45 1014.46 1015.41 1016.25 1016.98 1017.58 1018.05 1018.40 1018.63 1018.77 1018.85 1018.89 1018.91 1018.93 1018.94 1018.93 1018.91 1018.84 1018.72 1018.55 1018.31 1018.02 1017.69 1017.33
1002.48 1002.13 1001.80 1001.52 1001.34 1001.29 1001.40 1001.69 1002.16 1002.79 1003.57 1004.47 1005.46 1006.53 1007.64 1008.78 1009.95 1011.11 1012.27 1013.39 1014.46 1015.46 1016.34 1017.11 1017.74 1018.23 1018.59 1018.84 1019.01 1019.11 1019.19 1019.26 1019.32 1019.38 1019.42 1019.45 1019.42 1019.35 1019.20 1018.98 1018.70 1018.36 1017.98
1001.72 1001.51 1001.33 1001.21 1001.16 1001.24 1001.44 1001.79 1002.29 1002.92 1003.68 1004.55 1005.51 1006.54 1007.64 1008.78 1009.96 1011.14 1012.33 1013.48 1014.58 1015.60 1016.51 1017.29 1017.93 1018.43 1018.81 1019.08 1019.27 1019.41 1019.52 1019.63 1019.74 1019.85 1019.95 1020.03 1020.06 1020.03 1019.92 1019.73 1019.46 1019.13 1018.73
1000.74 1000.70 1000.69 1000.74 1000.87 1001.09 1001.41 1001.85 1002.41 1003.08 1003.85 1004.72 1005.68 1006.72 1007.82 1008.97 1010.15 1011.36 1012.56 1013.72 1014.83 1015.85 1016.76 1017.54 1018.17 1018.68 1019.06 1019.34 1019.55 1019.72 1019.88 1020.03 1020.18 1020.34 1020.48 1020.61 1020.68 1020.69 1020.62 1020.46 1020.22 1019.91 1019.52
999.59 999.72 999.90 1000.14 1000.44 1000.82 1001.27 1001.82 1002.46 1003.20 1004.02 1004.93 1005.92 1006.98 1008.10 1009.28 1010.49 1011.71 1012.92 1014.09 1015.19 1016.20 1017.09 1017.85 1018.47 1018.97 1019.35 1019.64 1019.86 1020.05 1020.23 1020.41 1020.60 1020.79 1020.97 1021.12 1021.23 1021.27 1021.23 1021.11 1020.90 1020.62 1020.26
998.31 998.62 998.98 999.40 999.87 1000.41 1001.00 1001.67 1002.41 1003.23 1004.13 1005.10 1006.15 1007.26 1008.42 1009.64 1010.88 1012.12 1013.34 1014.51 1015.60 1016.59 1017.46 1018.20 1018.80 1019.28 1019.65 1019.94 1020.17 1020.37 1020.57 1020.76 1020.96 1021.16 1021.36 1021.53 1021.65 1021.72 1021.70 1021.61 1021.45 1021.20 1020.90
996.98 997.45 997.98 998.56 999.19 999.87 1000.59 1001.38 1002.22 1003.14 1004.11 1005.16 1006.28 1007.45 1008.67 1009.94 1011.22 1012.48 1013.72 1014.89 1015.98 1016.95 1017.80 1018.52 1019.10 1019.57 1019.93 1020.22 1020.45 1020.65 1020.84 1021.04 1021.24 1021.44 1021.63 1021.79 1021.92 1022.00 1022.01 1021.95 1021.82 1021.63 1021.38
Thickness
5781 5780 5778 5777 5774 5771 5768 5764 5760 5756 5752 5748 5744 5740 5737 5736 5734 5733 5733 5731 5729 5727 5725 5724 5722 5721 5719 5718 5716 5714 5712 5710 5709 5707 5706 5708 5710 5711 5712 5713 5713 5713 5713
5774 5774 5773 5772 5769 5767 5765 5761 5758 5754 5751 5747 5743 5740 5737 5734 5732 5730 5729 5729 5726 5724 5723 5721 5720 5719 5717 5715 5713 5711 5709 5707 5706 5703 5700 5698 5701 5705 5709 5709 5709 5709 5710
5768 5768 5768 5766 5765 5764 5762 5760 5756 5752 5748 5744 5739 5736 5732 5730 5728 5727 5726 5726 5724 5722 5721 5719 5718 5716 5715 5713 5711 5710 5707 5704 5702 5702 5698 5694 5693 5697 5702 5704 5705 5705 5705
5764 5763 5763 5761 5761 5761 5759 5756 5752 5748 5744 5741 5737 5733 5729 5726 5725 5724 5723 5722 5720 5719 5718 5716 5715 5714 5712 5710 5709 5707 5706 5703 5699 5698 5697 5696 5696 5692 5693 5697 5699 5700 5701
5760 5759 5758 5757 5757 5756 5753 5751 5748 5744 5741 5739 5735 5731 5728 5726 5723 5720 5718 5717 5716 5715 5714 5713 5712 5710 5709 5707 5706 5704 5702 5701 5698 5695 5694 5692 5690 5690 5689 5689 5691 5693 5696
5755 5753 5752 5751 5751 5750 5748 5744 5741 5739 5737 5734 5732 5728 5725 5722 5718 5716 5713 5712 5712 5711 5711 5710 5709 5707 5706 5703 5702 5701 5699 5697 5695 5693 5691 5689 5687 5686 5685 5684 5685 5686 5689
5748 5747 5746 5745 5745 5744 5742 5739 5736 5733 5732 5729 5727 5724 5722 5719 5716 5714 5711 5709 5708 5707 5708 5707 5705 5704 5703 5701 5699 5697 5695 5693 5691 5689 5688 5686 5685 5685 5682 5680 5679 5679 5682
5741 5742 5742 5741 5741 5739 5737 5735 5732 5729 5727 5725 5723 5720 5718 5715 5714 5712 5709 5706 5705 5705 5705 5703 5702 5700 5699 5697 5695 5692 5691 5689 5687 5686 5684 5682 5682 5680 5679 5677 5674 5673 5674
5734 5735 5735 5736 5736 5734 5732 5730 5728 5726 5723 5721 5719 5716 5713 5711 5710 5709 5707 5705 5702 5702 5700 5699 5697 5695 5693 5692 5690 5688 5686 5685 5683 5682 5680 5679 5678 5676 5674 5673 5672 5669 5667
5727 5728 5729 5730 5730 5728 5727 5726 5723 5721 5719 5716 5714 5712 5709 5708 5706 5705 5702 5700 5698 5697 5695 5694 5692 5690 5688 5687 5685 5684 5683 5681 5679 5678 5676 5675 5674 5672 5670 5669 5668 5666 5665
5718 5720 5722 5723 5723 5722 5720 5719 5717 5715 5712 5710 5709 5707 5705 5702 5701 5699 5698 5696 5694 5693 5691 5689 5687 5685 5683 5682 5681 5679 5678 5676 5675 5674 5672 5671 5670 5668 5666 5665 5663 5661 5660
5711 5712 5713 5715 5714 5714 5713 5712 5710 5709 5707 5704 5702 5700 5699 5697 5695 5694 5692 5691 5689 5688 5686 5684 5682 5681 5679 5678 5676 5675 5674 5672 5671 5670 5668 5666 5665 5663 5661 5660 5659 5658 5657
5703 5704 5704 5705 5706 5706 5706 5704 5703 5703 5701 5698 5695 5693 5693 5691 5689 5689 5688 5686 5684 5682 5681 5679 5678 5676 5675 5673 5672 5671 5670 5668 5666 5665 5664 5662 5661 5658 5657 5655 5654 5653 5652
5694 5694 5694 5695 5696 5698 5698 5698 5697 5695 5694 5691 5689 5688 5687 5686 5684 5683 5682 5681 5679 5677 5675 5675 5673 5672 5670 5669 5668 5666 5665 5663 5662 5660 5659 5658 5656 5654 5652 5650 5648 5647 5646
5686 5686 5686 5687 5688 5689 5690 5690 5690 5689 5688 5686 5684 5683 5681 5680 5679 5677 5676 5675 5673 5672 5671 5669 5668 5667 5665 5665 5663 5661 5659 5658 5656 5655 5654 5653 5651 5650 5647 5646 5644 5642 5641
5678 5679 5679 5680 5680 5682 5682 5682 5683 5683 5682 5680 5679 5677 5675 5674 5673 5672 5669 5668 5667 5666 5665 5664 5663 5662 5661 5660 5658 5656 5654 5653 5651 5649 5648 5647 5645 5644 5642 5640 5639 5638 5636
5671 5671 5672 5672 5673 5674 5675 5675 5675 5675 5675 5674 5673 5670 5669 5667 5666 5666 5664 5662 5661 5660 5659 5658 5657 5656 5655 5654 5653 5652 5649 5647 5645 5643 5641 5640 5640 5637 5636 5634 5633 5631 5630
5663 5664 5664 5665 5666 5667 5668 5668 5668 5667 5667 5666 5665 5664 5662 5661 5659 5657 5656 5656 5655 5654 5653 5652 5651 5650 5649 5648 5647 5646 5643 5642 5640 5638 5636 5633 5632 5631 5629 5627 5626 5625 5624
5656 5656 5657 5658 5658 5659 5660 5660 5660 5659 5659 5659 5659 5658 5657 5654 5652 5651 5650 5650 5649 5647 5646 5646 5645 5644 5643 5642 5640 5639 5636 5635 5633 5632 5630 5628 5626 5624 5622 5620 5618 5618 5617
5649 5649 5650 5650 5650 5651 5652 5652 5652 5651 5652 5653 5653 5652 5651 5648 5647 5646 5645 5644 5643 5641 5640 5639 5639 5638 5637 5636 5634 5631 5630 5628 5627 5625 5624 5622 5620 5618 5616 5613 5612 5610 5610
5642 5642 5642 5642 5643 5643 5644 5643 5643 5643 5645 5646 5646 5646 5644 5643 5641 5640 5638 5637 5636 5635 5634 5632 5632 5632 5631 5630 5627 5625 5624 5622 5620 5619 5618 5616 5614 5612 5609 5607 5606 5605 5603
5634 5635 5634 5634 5635 5635 5635 5635 5635 5636 5637 5637 5638 5638 5638 5637 5636 5633 5632 5631 5629 5627 5626 5625 5625 5625 5624 5623 5621 5619 5617 5616 5614 5613 5612 5610 5608 5606 5603 5601 5600 5598 5595
5627 5627 5626 5626 5627 5627 5627 5627 5627 5628 5629 5630 5630 5630 5631 5629 5628 5627 5625 5624 5622 5621 5620 5619 5618 5618 5618 5617 5615 5613 5610 5609 5608 5607 5605 5603 5601 5599 5597 5595 5593 5591 5589
5619 5619 5619 5619 5619 5621 5620 5621 5622 5622 5621 5622 5622 5623 5622 5621 5622 5620 5618 5616 5615 5614 5614 5613 5613 5612 5612 5611 5609 5606 5604 5602 5600 5599 5597 5594 5593 5592 5591 5589 5587 5585 5583
5613 5613 5612 5612 5613 5614 5614 5615 5616 5616 5614 5613 5613 5613 5614 5613 5613 5611 5610 5610 5610 5610 5609 5608 5607 5606 5606 5606 5604 5601 5599 5597 5594 5591 5589 5588 5587 5586 5585 5583 5581 5579 5577
5606 5606 5606 5606 5607 5608 5608 5609 5609 5609 5608 5606 5605 5606 5605 5605 5605 5604 5603 5602 5603 5603 5602 5602 5601 5601 5601 5599 5597 5594 5592 5589 5586 5584 5584 5583 5582 5580 5579 5577 5576 5574 5572